Terminal Aerodrome Forecast
Issued by NWS

Home | Current Version | Previous Version | Graphics & Text | Print | Product List | Glossary Off
Versions: 1 2 3 4 5 6 7 8 9 10 11 12 13 14 15 16 17 18 19 20 21 22 23 24 25 26 27 28

000
FTUS43 KDDC 300917 AAA
TAFHYS
TAF AMD
KHYS 300917Z 3009/3106 35017G24KT P6SM SCT019 OVC035
     FM301600 35012KT P6SM SKC
     FM310100 04006KT P6SM SKC=

USA.gov is the U.S. government's official web portal to all federal, state and local government web resources and services.